Marshfield, WI

3:52 AM CDT on September 23, 2019 (GMT -0500)
Marshfield Municipal

Weather History for KMFI - August, 2019

Change the Weather History Date:

Thursday, August 22, 2019

  Actual Average Record
Temperature  
Mean Temperature 62 °F -  
Max Temperature 73 °F 77 °F 93 °F (1947)
Min Temperature 53 °F 55 °F 33 °F (1967)
Degree Days  
Heating Degree Days 3    
Growing Degree Days 12 (Base 50)    
Moisture  
Dew Point 53 °F    
Average Humidity 77    
Maximum Humidity 90    
Minimum Humidity 55    
Precipitation  
Precipitation 0.00 in - - ()
Sea Level Pressure  
Sea Level Pressure 30.08 in    
Wind  
Wind Speed 3 mph (East)    
Max Wind Speed 9 mph    
Max Gust Speed -    
Visibility 10 miles    
Events Rain    
Averages and records for this station are not official NWS values.
T = Trace of Precipitation, MM = Missing Value Source: NWS Daily Summary

Daily Weather History Graph

Daily Weather History Graph

Search for Another Location

Airport or City:

Astronomy

Aug. 22, 2019 Rise Set
Actual Time 6:11 AM CDT 7:55 PM CDT
Civil Twilight 5:40 AM CDT 8:26 PM CDT
Nautical Twilight 5:02 AM CDT 9:03 PM CDT
Astronomical Twilight 4:21 AM CDT 9:44 PM CDT
Moon 11:28 PM CDT (8/22) 1:02 PM CDT (8/22)
Length of Visible Light 14h 45m
Length of Day
13h 44m
Waning Gibbous, 59% of the Moon is Illuminated
Aug 22
Waning Gibbous
Aug 23
Last Quarter
Aug 30
New
Sep 5
First Quarter
Sep 13
Full

Hourly Weather History & Observations

Time (CDT) Temp. Dew Point Humidity Pressure Visibility Wind Dir Wind Speed Gust Speed Precip Events Conditions
12:54 AM 54.0 °F 51.1 °F 90% 30.04 in 10.0 mi NW 3.5 mph - N/A   Clear
1:54 AM 53.1 °F 50.0 °F 89% 30.04 in 10.0 mi Calm Calm - N/A   Mostly Cloudy
2:54 AM 55.0 °F 52.0 °F 89% 30.03 in 10.0 mi Calm Calm - N/A   Overcast
3:54 AM 55.9 °F 53.1 °F 90% 30.03 in 10.0 mi Calm Calm - N/A   Overcast
4:54 AM 57.0 °F 54.0 °F 89% 30.02 in 10.0 mi Calm Calm - N/A   Overcast
5:54 AM 55.9 °F 52.0 °F 87% 30.03 in 10.0 mi Calm Calm - N/A   Overcast
6:54 AM 57.0 °F 52.0 °F 83% 30.05 in 10.0 mi East 4.6 mph - N/A   Overcast
7:54 AM 57.9 °F 52.0 °F 81% 30.06 in 10.0 mi ESE 6.9 mph - N/A   Overcast
8:54 AM 59.0 °F 52.0 °F 78% 30.07 in 10.0 mi East 5.8 mph - N/A   Overcast
9:54 AM 57.9 °F 54.0 °F 87% 30.08 in 5.0 mi SE 6.9 mph - 0.00 in Rain Light Rain
10:54 AM 59.0 °F 52.0 °F 78% 30.09 in 10.0 mi SE 5.8 mph - 0.00 in   Overcast
11:54 AM 63.0 °F 53.1 °F 70% 30.09 in 10.0 mi Calm Calm - N/A   Overcast
12:54 PM 66.9 °F 53.1 °F 61% 30.08 in 10.0 mi North - - N/A   Scattered Clouds
1:54 PM 68.0 °F 54.0 °F 61% 30.08 in 10.0 mi SSW 4.6 mph - N/A   Overcast
2:54 PM 68.0 °F 54.0 °F 61% 30.07 in 10.0 mi Calm Calm - N/A   Overcast
3:54 PM 71.1 °F 54.0 °F 55% 30.07 in 10.0 mi East 3.5 mph - N/A   Mostly Cloudy
4:54 PM 68.0 °F 54.0 °F 61% 30.07 in 10.0 mi ENE 9.2 mph - N/A   Mostly Cloudy
5:54 PM 66.9 °F 54.0 °F 63% 30.08 in 10.0 mi ENE 9.2 mph - N/A   Overcast
6:54 PM 66.0 °F 53.1 °F 63% 30.09 in 10.0 mi East 8.1 mph - N/A   Overcast
7:54 PM 63.0 °F 55.0 °F 75% 30.10 in 10.0 mi East 8.1 mph - N/A   Overcast
8:54 PM 62.1 °F 55.0 °F 78% 30.12 in 10.0 mi ENE 8.1 mph - N/A   Overcast
9:54 PM 60.1 °F 54.0 °F 80% 30.14 in 10.0 mi East 5.8 mph - N/A   Mostly Cloudy
10:54 PM 59.0 °F 54.0 °F 83% 30.15 in 10.0 mi ENE 6.9 mph - N/A   Mostly Cloudy
11:54 PM 55.9 °F 53.1 °F 90% 30.16 in 10.0 mi ENE 5.8 mph - N/A   Scattered Clouds